TimeEST,TemperatureF,Dew PointF,Humidity,Sea Level PressureIn,VisibilityMPH,Wind Direction,Wind SpeedMPH,Gust SpeedMPH,PrecipitationIn,Events,Conditions,WindDirDegrees,DateUTC
12:15 AM,27.9,25.3,90,30.13,10.0,Calm,Calm,-,N/A,,Clear,0,2012-11-25 05:15:00
12:35 AM,27.9,25.2,90,30.12,10.0,Calm,Calm,-,N/A,,Clear,0,2012-11-25 05:35:00
12:55 AM,27.9,25.3,90,30.12,10.0,SW,3.5,-,N/A,,Clear,220,2012-11-25 05:55:00
1:15 AM,27.9,24.8,88,30.12,10.0,WSW,4.6,-,N/A,,Clear,240,2012-11-25 06:15:00
1:35 AM,27.9,24.8,88,30.10,10.0,SSW,3.5,-,N/A,,Scattered Clouds,200,2012-11-25 06:35:00
1:55 AM,27.9,24.8,88,30.10,10.0,SW,5.8,-,N/A,,Scattered Clouds,230,2012-11-25 06:55:00
2:15 AM,27.9,24.4,87,30.09,10.0,SW,5.8,-,N/A,,Clear,220,2012-11-25 07:15:00
2:35 AM,28.2,23.9,84,30.11,10.0,WSW,8.1,-,N/A,,Clear,250,2012-11-25 07:35:00
2:55 AM,27.9,23.7,84,30.10,10.0,SW,4.6,-,N/A,,Clear,220,2012-11-25 07:55:00
3:15 AM,27.9,23.5,84,30.10,10.0,SW,8.1,-,N/A,,Clear,230,2012-11-25 08:15:00
3:35 AM,27.9,23.9,85,30.10,10.0,SW,5.8,-,N/A,,Clear,230,2012-11-25 08:35:00
3:55 AM,27.9,24.3,86,30.09,10.0,SW,8.1,-,N/A,,Scattered Clouds,230,2012-11-25 08:55:00
4:15 AM,27.9,24.1,86,30.08,10.0,SSW,4.6,-,N/A,,Scattered Clouds,200,2012-11-25 09:15:00
4:35 AM,27.9,24.3,86,30.07,10.0,SSW,5.8,-,N/A,,Clear,200,2012-11-25 09:35:00
4:55 AM,28.0,23.9,84,30.07,10.0,SSW,5.8,-,N/A,,Clear,200,2012-11-25 09:55:00
5:15 AM,28.4,24.3,84,30.06,10.0,South,5.8,-,N/A,,Clear,190,2012-11-25 10:15:00
5:35 AM,29.1,24.6,83,30.05,10.0,SSW,6.9,-,N/A,,Mostly Cloudy,200,2012-11-25 10:35:00
5:55 AM,29.1,24.6,83,30.05,10.0,SSW,4.6,-,N/A,,Scattered Clouds,200,2012-11-25 10:55:00
6:15 AM,30.2,25.3,82,30.04,10.0,SSW,5.8,-,N/A,,Clear,200,2012-11-25 11:15:00
6:35 AM,30.2,25.2,82,30.04,10.0,SSW,6.9,-,N/A,,Clear,200,2012-11-25 11:35:00
6:55 AM,30.2,24.8,80,30.03,10.0,SSW,9.2,-,N/A,,Scattered Clouds,200,2012-11-25 11:55:00
7:15 AM,30.2,24.8,80,30.02,10.0,South,8.1,-,N/A,,Scattered Clouds,190,2012-11-25 12:15:00
7:35 AM,30.2,24.8,80,30.01,10.0,SSW,9.2,-,N/A,,Scattered Clouds,200,2012-11-25 12:35:00
7:55 AM,32.5,27.3,81,30.01,10.0,SSW,8.1,-,N/A,,Mostly Cloudy,200,2012-11-25 12:55:00
8:15 AM,32.5,27.1,80,30.00,10.0,SSW,10.4,-,N/A,,Overcast,200,2012-11-25 13:15:00
8:35 AM,32.5,26.8,79,29.99,10.0,South,8.1,-,N/A,,Overcast,190,2012-11-25 13:35:00
8:55 AM,32.5,26.4,78,30.00,10.0,SSW,8.1,-,N/A,,Mostly Cloudy,200,2012-11-25 13:55:00
9:15 AM,32.5,25.9,76,30.00,10.0,SSW,9.2,-,N/A,,Clear,200,2012-11-25 14:15:00
9:35 AM,32.5,25.7,76,29.99,10.0,South,5.8,-,N/A,,Clear,190,2012-11-25 14:35:00
9:55 AM,35.1,27.7,74,30.00,10.0,SW,11.5,-,N/A,,Clear,220,2012-11-25 14:55:00
10:15 AM,35.1,27.0,72,30.00,10.0,SSW,10.4,17.3,N/A,,Clear,210,2012-11-25 15:15:00
10:35 AM,35.1,26.4,71,29.99,10.0,SSW,13.8,-,N/A,,Clear,210,2012-11-25 15:35:00
10:55 AM,37.6,27.9,68,30.00,10.0,SW,12.7,17.3,N/A,,Clear,220,2012-11-25 15:55:00
11:15 AM,37.6,27.5,67,29.98,10.0,SW,13.8,-,N/A,,Clear,230,2012-11-25 16:15:00
11:35 AM,39.0,27.1,62,29.97,10.0,SW,15.0,-,N/A,,Clear,230,2012-11-25 16:35:00
11:55 AM,40.1,27.3,60,29.96,10.0,SW,13.8,20.7,N/A,,Clear,230,2012-11-25 16:55:00
12:15 PM,40.6,27.0,58,29.95,10.0,SW,17.3,21.9,N/A,,Clear,230,2012-11-25 17:15:00
12:35 PM,41.5,27.5,57,29.94,10.0,SW,15.0,19.6,N/A,,Clear,220,2012-11-25 17:35:00
12:55 PM,41.4,27.1,57,29.93,10.0,SW,13.8,-,N/A,,Clear,230,2012-11-25 17:55:00
1:15 PM,43.2,28.2,56,29.92,10.0,SW,9.2,16.1,N/A,,Clear,220,2012-11-25 18:15:00
1:35 PM,46.8,30.7,54,29.92,10.0,SW,10.4,-,N/A,,Clear,220,2012-11-25 18:35:00
1:55 PM,47.7,30.2,51,29.91,10.0,SW,11.5,-,N/A,,Clear,230,2012-11-25 18:55:00
2:15 PM,47.7,29.7,50,29.92,10.0,WSW,9.2,-,N/A,,Clear,240,2012-11-25 19:15:00
2:35 PM,47.7,30.9,52,29.91,10.0,SW,12.7,-,N/A,,Clear,230,2012-11-25 19:35:00
2:55 PM,47.7,31.1,53,29.91,10.0,WSW,6.9,-,N/A,,Clear,250,2012-11-25 19:55:00
3:15 PM,47.7,30.4,51,29.92,10.0,WSW,11.5,-,N/A,,Clear,250,2012-11-25 20:15:00
3:35 PM,47.7,30.9,52,29.92,10.0,West,11.5,-,N/A,,Clear,260,2012-11-25 20:35:00
3:55 PM,47.7,31.3,53,29.92,10.0,West,9.2,-,N/A,,Clear,270,2012-11-25 20:55:00
4:15 PM,47.7,31.6,54,29.93,10.0,West,6.9,-,N/A,,Scattered Clouds,280,2012-11-25 21:15:00
4:35 PM,47.7,31.3,53,29.94,10.0,West,11.5,-,N/A,,Scattered Clouds,260,2012-11-25 21:35:00
4:55 PM,47.7,32.0,55,29.94,10.0,WSW,9.2,-,N/A,,Scattered Clouds,240,2012-11-25 21:55:00
5:15 PM,45.1,30.6,57,29.94,10.0,WSW,8.1,-,N/A,,Clear,250,2012-11-25 22:15:00
5:35 PM,40.8,28.6,62,29.95,10.0,SW,5.8,-,N/A,,Clear,230,2012-11-25 22:35:00
5:55 PM,39.9,29.5,66,29.95,10.0,SW,5.8,-,N/A,,Clear,230,2012-11-25 22:55:00
6:15 PM,39.6,30.7,71,29.95,10.0,Calm,Calm,-,N/A,,Clear,0,2012-11-25 23:15:00
6:35 PM,40.1,30.0,67,29.96,10.0,Calm,Calm,-,N/A,,Clear,0,2012-11-25 23:35:00
6:55 PM,40.6,29.3,64,29.97,10.0,Calm,Calm,-,N/A,,Clear,0,2012-11-25 23:55:00
7:15 PM,40.1,30.9,70,29.97,10.0,Calm,Calm,-,N/A,,Clear,0,2012-11-26 00:15:00
7:35 PM,39.2,31.8,75,29.98,10.0,Calm,Calm,-,N/A,,Clear,0,2012-11-26 00:35:00
7:55 PM,37.6,31.6,79,29.99,10.0,Calm,Calm,-,N/A,,Clear,0,2012-11-26 00:55:00
8:15 PM,38.7,31.1,74,30.00,10.0,Calm,Calm,-,N/A,,Scattered Clouds,0,2012-11-26 01:15:00
8:35 PM,38.8,31.3,74,30.00,10.0,Calm,Calm,-,N/A,,Scattered Clouds,0,2012-11-26 01:35:00
8:55 PM,40.1,31.5,71,30.00,10.0,Calm,Calm,-,N/A,,Mostly Cloudy,0,2012-11-26 01:55:00
9:15 PM,38.7,32.0,77,30.01,10.0,Calm,Calm,-,N/A,,Mostly Cloudy,0,2012-11-26 02:15:00
9:35 PM,38.1,32.2,79,30.00,10.0,Calm,Calm,-,N/A,,Scattered Clouds,0,2012-11-26 02:35:00
9:55 PM,37.6,32.9,83,30.01,10.0,Calm,Calm,-,N/A,,Scattered Clouds,0,2012-11-26 02:55:00
10:15 PM,38.3,32.7,80,30.02,10.0,Calm,Calm,-,N/A,,Mostly Cloudy,0,2012-11-26 03:15:00
10:35 PM,38.7,34.2,84,30.03,10.0,Calm,Calm,-,N/A,,Overcast,0,2012-11-26 03:35:00
10:55 PM,37.6,34.7,89,30.03,10.0,Calm,Calm,-,N/A,,Overcast,0,2012-11-26 03:55:00
11:15 PM,37.6,34.0,87,30.04,10.0,Calm,Calm,-,N/A,,Mostly Cloudy,0,2012-11-26 04:15:00
11:35 PM,38.8,34.0,83,30.05,10.0,Calm,Calm,-,N/A,,Scattered Clouds,0,2012-11-26 04:35:00
11:55 PM,37.8,33.4,84,30.04,10.0,Calm,Calm,-,N/A,,Scattered Clouds,0,2012-11-26 04:55:00